Location: Theydon Bois
(51.6750°N, 0.1050°E)
Time: 20:31:03
(UTC+01:00)

Daily predictions for brighter satellites

Satellite Brightness Start Highest point End
(mag) Time Altitude Azimuth Time Altitude Azimuth Time Altitude Azimuth
Cosmos 2218 Rocket 4.0 18:15:49 10° S 18:21:51 60° E 18:27:54 10° NNE
COSMOS 2428 2.9 18:16:41 10° NNW 18:22:16 53° NE 18:27:50 10° SE
MOS 1 4.4 18:16:54 10° SE 18:22:25 55° ENE 18:27:59 10° N
Cosmos 1727 Rocket 4.1 18:17:53 10° N 18:24:15 66° ENE 18:30:33 10° SSE
Cosmos 2333 Rocket 2.9 18:19:47 10° NNW 18:25:05 36° NE 18:30:22 10° ESE
deb Kosmos-1763 4.2 18:22:13 10° SSW 18:26:03 86° WNW 18:29:56 10° NNE
CSL-04 Rocket 4.3 18:21:37 10° S 18:26:54 62° WSW 18:32:11 10° NNW
Cosmos 2058 2.9 18:23:51 10° N 18:28:01 62° ENE 18:32:09 10° SSE
Cosmos-2242 3.1 18:23:55 10° S 18:28:10 87° W 18:32:28 10° N
H-2A R/B 4.4 18:26:19 10° E 18:28:49 17° ENE 18:31:21 10° NNE
ALOS 2.9 18:27:38 10° SE 18:31:52 35° ENE 18:36:08 10° N
Cosmos 1400 Rocket 2.9 18:28:10 10° NNW 18:32:15 87° W 18:36:15 10° S
Cosmos 1452 Rocket 3.6 18:27:07 10° NNW 18:32:25 88° ENE 18:37:41 10° SSE
Cosmos 2219 4.5 18:29:47 10° SE 18:33:44 20° E 18:37:43 10° NE
YAOGAN 1 2.5 18:29:28 10° SSE 18:33:46 76° ENE 18:38:08 10° NNW
SPOT 3 Rocket 3.7 18:29:05 10° SE 18:34:08 54° ENE 18:39:15 10° N
FENGYUN 3A 4.0 18:32:58 10° SE 18:38:03 43° ENE 18:43:10 10° N
CORIOLIS 4.5 18:32:42 10° S 18:38:06 75° WSW 18:43:34 10° NNW
Cosmos 1461 3.6 18:40:55 10° WSW 18:44:57 55° NW 18:49:14 10° NE
Cosmos 1300 4.5 18:44:17 10° ESE 18:46:04 13° E 18:47:51 10° NE
Cosmos 2098 Rocket 4.4 18:44:32 10° SE 18:48:55 31° E 18:54:16 10° NNE
Iridium 4 Rocket 4.2 18:44:15 10° SSE 18:49:30 39° E 18:54:56 10° NNE
Cosmos 2322 4.2 18:44:09 10° NW 18:49:51 68° WSW 18:55:31 10° SSE
Lacrosse 4 Rocket 4.0 18:48:51 10° NW 18:50:16 11° NNW 18:51:41 10° N
GP-B 3.1 18:48:47 10° N 18:53:15 86° E 18:57:42 10° S
SKYMED 2 3.8 18:50:13 10° NNE 18:54:26 47° E 18:58:38 10° S
Cosmos 1743 Rocket 4.4 18:51:36 10° NNW 18:55:54 57° W 19:00:13 10° S
SL-08 R/B 4.5 18:49:53 10° S 18:56:01 87° E 19:02:11 10° N
USA 116 4.5 18:51:06 10° NNE 18:56:16 86° ESE 19:01:39 10° SSW
Aureole 2 Rocket 2.9 18:53:05 10° NNW 18:56:50 50° ENE 19:00:45 10° SE
CZ-4 R/B 2.7 18:54:44 10° S 18:58:45 45° W 19:02:45 10° NNW
MTI 3.7 18:55:39 10° NNE 18:58:54 78° ESE 19:02:05 10° S
Cosmos 2219 Rocket 2.2 18:54:38 10° NNW 19:00:13 63° NE 19:05:47 10° SE
Cosmos 2221 2.9 18:56:12 10° SSE 19:00:17 42° E 19:04:25 10° NNE
Cosmos 44 4.0 18:57:03 10° S 19:00:41 26° ESE 19:03:15 16° ENE
Cosmos 921 Rocket 3.6 18:56:20 10° NNW 19:00:47 63° WSW 19:05:06 10° S
Cosmos 2084 3.1 18:58:01 10° NW 19:01:49 67° NE 19:05:13 13° ESE
GRACE-2 3.5 19:01:22 10° S 19:03:54 64° E 19:06:28 10° N
Meteor 2-1 Rocket 4.3 18:58:20 10° S 19:04:09 74° E 19:10:06 10° NNE
NOSS 0 Rocket 4.0 19:02:15 10° NNW 19:08:25 61° NE 19:14:29 10° SE
GRACE-1 3.5 19:05:56 10° S 19:08:31 79° E 19:11:06 10° N
CZ-4C R/B 3.0 19:05:41 10° S 19:10:16 30° ESE 19:14:12 15° ENE
Cosmos 1842 Rocket 3.8 19:05:53 10° SSW 19:10:21 77° W 19:14:50 10° N
EO 1 Del DPAF 3.1 19:06:33 10° NNE 19:10:26 80° ESE 19:14:16 10° SSW
SL-8 R/B 4.3 19:07:41 10° SW 19:12:15 43° SSE 19:15:13 20° E
Cosmos 1048 Rocket 4.2 19:09:27 10° S 19:14:17 44° ESE 19:19:08 10° NE
ERS-2 4.3 19:11:49 10° SSW 19:15:07 30° W 19:18:26 10° NW
NOAA 12 4.1 19:10:09 10° SSE 19:15:28 87° ENE 19:20:51 10° NNW
Cosmos 158 Rocket 4.0 19:11:48 10° S 19:16:46 54° ESE 19:21:53 10° NNE
APEX 3.1 19:15:09 10° S 19:17:51 32° ESE 19:18:07 31° ESE
Cosmos 1315 Rocket 3.7 19:15:12 10° NNW 19:19:12 54° W 19:23:11 10° S
Envisat 4.0 19:20:56 22° E 19:22:46 27° ENE 19:26:59 10° N
Abrixas rocket 2.8 19:21:05 10° WSW 19:24:16 47° S 19:25:36 28° SE
Cosmos 1726 2.3 19:21:31 10° SSE 19:25:03 44° E 19:28:34 10° NNE
Thor Agena Rocket 3.8 19:25:00 10° NNE 19:29:52 43° E 19:34:40 10° S
Cosmos 1535 Rocket 4.5 19:25:05 10° SSE 19:31:01 56° E 19:36:59 10° NNE
Cosmos 44 Rocket 3.4 19:27:32 10° SSW 19:32:02 48° ESE 19:34:31 24° ENE
In-Cosmos 22 Rocket 4.3 19:28:40 10° N 19:34:21 59° ENE 19:40:04 10° SSE
Cosmos 2237 Rocket 2.2 19:29:56 10° NNW 19:35:38 65° NE 19:39:46 19° SE
Resurs 01 Rocket 2.2 19:40:59 34° E 19:41:32 35° ENE 19:45:33 10° N
Sich 1 2.9 19:37:46 10° N 19:42:10 81° E 19:46:34 10° SSE
COSMO-SKYMED 1 3.1 19:38:15 10° N 19:42:34 62° WNW 19:46:51 10° SSW
Cosmos 1331 Rocket 3.9 19:38:56 10° NNW 19:44:13 76° ENE 19:48:13 17° SSE
Lacrosse 5 rocket 2.3 19:41:11 10° WNW 19:45:20 40° N 19:46:51 29° NE
SJ-6B 2.5 19:43:47 25° SSE 19:45:48 69° ENE 19:49:32 10° N
SL-16 R/B 2.7 19:41:58 10° NNW 19:47:21 41° NE 19:49:04 33° E
Resurs 1-3 4.1 19:47:34 37° ENE 19:47:48 37° ENE 19:51:51 10° N
Cosmos 2227 Rocket 3.5 19:43:41 10° SSE 19:46:16 22° SE 19:46:16 22° SE
FREGAT/IRIS 2.7 19:47:08 25° S 19:48:44 73° WSW 19:51:44 10° NNW
Cosmos 1908 4.4 19:50:12 10° SSW 19:53:58 45° WNW 19:57:45 10° N
Cosmos 1805 Rocket 4.3 19:51:09 10° NNW 19:55:26 53° W 19:59:43 10° S
Meteor 2-3 Rocket 3.9 19:53:01 10° N 19:58:40 53° ENE 20:00:51 34° SE
Cosmos 1980 3.7 19:54:04 10° NNW 19:59:46 85° WSW 20:03:35 22° SSE
Cosmos 1821 Rocket 4.0 19:55:08 10° S 20:01:21 84° WNW 20:07:41 10° N
Cosmos 1934 Rocket 3.9 19:55:26 10° S 20:01:47 78° E 20:08:10 10° NNE
USA 234 3.4 19:58:45 32° E 20:01:53 64° NNE 20:08:23 10° WNW
H-2A R/B 3.2 19:58:47 10° S 20:02:38 64° WSW 20:06:35 10° NNW
Cosmos 1666 Rocket 3.9 20:00:21 10° NNW 20:04:41 64° W 20:08:57 10° S
ATLAS 5 CENTAUR R/B 3.5 20:01:34 10° NW 20:06:11 27° NNE 20:07:56 24° NE
COSMOS 2428 4.4 20:01:19 10° NW 20:06:20 33° WSW 20:11:21 10° SSW
Cosmos 1269 Rocket 4.0 20:01:08 10° SSW 20:06:25 86° WNW 20:11:46 10° NNE
HJ-1C 3.7 20:07:34 53° SSW 20:08:10 68° WSW 20:11:38 10° NNW
ALOS 3.9 20:05:03 10° SSW 20:09:19 35° W 20:13:37 10° NNW
Cosmos 2333 Rocket 2.9 20:04:01 10° NW 20:09:37 55° WSW 20:15:13 10° S
Cosmos 1633 Rocket 3.3 20:06:03 10° NNW 20:10:28 68° W 20:14:39 11° S
Cosmos 1302 Rocket 3.9 20:07:18 10° NNW 20:12:33 77° ENE 20:14:01 48° SE
Cosmos 1933 Rocket 3.6 20:08:15 10° N 20:12:12 59° NE 20:12:12 59° NE
Cosmos 2219 3.2 20:11:25 10° SSW 20:17:12 86° WNW 20:22:52 11° NNE
Cosmos 1300 3.0 20:17:26 10° SSW 20:21:14 66° WNW 20:25:05 10° N
Cosmos 1892 3.8 20:17:26 10° N 20:19:46 35° N 20:19:46 35° N
Cosmos 2297 Rocket 4.1 20:20:21 10° S 20:21:14 15° S 20:21:14 15° S
Cosmos 2123 Rocket 4.4 20:19:35 10° NNW 20:25:43 61° W 20:31:53 10° S
Spot 2 Rocket 3.3 20:25:49 68° SE 20:26:22 76° ENE 20:31:28 10° NNW
CZ-2D R/B 3.5 20:27:15 67° WNW 20:27:15 67° WNW 20:30:55 10° NNW
BREEZE-M DEB (TANK) 4.4 20:11:40 10° WNW 20:28:20 49° SW 20:30:43 31° SSE
Cosmos 494 Rocket 4.5 20:26:48 10° SSW 20:30:16 43° S 20:30:16 43° S
Meteor 2-2 Rocket 4.1 20:26:35 10° S 20:32:16 89° ESE 20:37:56 10° NNE
USA 32 4.0 20:27:33 10° N 20:32:50 81° W 20:34:52 39° S
Cosmos 1605 Rocket 3.9 20:29:37 10° S 20:35:43 87° W 20:41:52 10° N
Meteor 2-10 4.3 20:31:06 10° SSW 20:36:06 65° WNW 20:41:18 10° N
Cosmos 1153 Rocket 4.3 20:36:59 38° S 20:39:29 72° E 20:45:42 10° NNE
H-2A R/B 4.0 20:43:06 18° NNE 20:43:06 18° NNE 20:45:05 10° N
Cosmos 44 3.6 20:37:23 10° WSW 20:41:38 53° NW 20:41:42 53° NW
MOS 1-B Rocket 4.2 20:38:03 23° S 20:41:45 66° WSW 20:48:08 10° NNW
Cosmos 2219 Rocket 4.1 20:39:09 10° NW 20:43:47 27° WSW 20:48:24 10° SSW
CZ-4C R/B 2.5 20:52:49 10° WSW 20:58:16 69° NW 20:59:25 55° NNE
Envisat 3.5 21:01:09 55° WSW 21:01:30 56° W 21:06:31 10° NNW
Meteor 2-17 Rocket 4.4 21:10:40 77° NW 21:10:40 77° NW 21:16:32 10° N
Resurs 01 Rocket 3.3 21:18:34 31° W 21:18:34 31° W 21:22:02 10° NNW
Cosmos 2237 Rocket 4.0 21:14:36 10° NW 21:19:18 27° WSW 21:21:39 20° SW
Lacrosse 5 rocket 3.7 21:20:52 10° WNW 21:22:32 22° NW 21:22:32 22° NW
SL-16 R/B 3.1 21:26:10 10° NW 21:30:58 44° W 21:30:58 44° W
Cosmos 2227 Rocket 4.0 21:26:22 10° SW 21:28:14 21° SW 21:28:14 21° SW
USA 234 3.6 21:46:06 59° W 21:46:06 59° W 21:51:29 10° WNW
ATLAS 5 CENTAUR R/B 3.6 21:46:21 10° NW 21:49:28 33° NNW 21:49:28 33° NNW
H-2A R/B 4.4 22:23:45 19° NNW 22:23:45 19° NNW 22:25:15 10° NNW
